Home   Weather   Büsingen am Hochrhein   Past weeks
Flag for Germany

Past Weather in Büsingen am Hochrhein, Baden-Württemberg, Germany — Yesterday and Last 2 Weeks

Now
79 °F

Passing clouds.


Feels Like: 79 °F
Forecast: 80 / 57 °F
Wind: 5 mph from West

Location: Zurich-Kloten

Current Time: Jul 18, 2019 at 3:23:49 pm

Latest Report: Jul 18, 2019 at 2:50 pm


Visibility: N/A

Pressure: 29.95 "Hg

Humidity: 34%

Dew Point: 48 °F

Location of Büsingen am HochrheinLocation

Past Weather in Büsingen am Hochrhein — Graph

°F

Büsingen am Hochrhein Temperature Yesterday

Maximum temperature yesterday: 81 °F (at 3:50 pm)
Minimum temperature yesterday: 52 °F (at 6:20 am)
Average temperature yesterday: 67 °F

High & Low Weather Summary for the Past Weeks

 TemperatureHumidityPressure
High86 °F (Jul 5, 4:50 pm)100% (Jul 12, 4:50 am)30.18 "Hg (Jul 12, 4:50 am)
Low50 °F (Jul 10, 4:50 am)25% (Jul 5, 3:20 pm)29.89 "Hg (Jul 7, 4:20 am)
Average66 °F67%30.02 "Hg
* Reported Jul 3 1:20 pm — Jul 18 1:50 pm, Büsingen am Hochrhein. Weather by CustomWeather, © 2019

Note: Actual official high and low records may vary slightly from our data, if they occured in-between our weather recording intervals... More about our weather records

Advertising

Büsingen am Hochrhein Weather History for the Previous 24 Hours

Scroll right to see more
 ConditionsComfort  
Time TempWeatherWind HumidityBarometerVisibility
1:50 pm
Thu, Jul 18
79 °FPassing clouds.7 mph32%29.95 "HgN/A
1:20 pm79 °FPassing clouds.6 mph37%29.95 "HgN/A
12:50 pm77 °FPassing clouds.5 mph42%29.98 "HgN/A
12:20 pm75 °FPassing clouds.5 mph44%29.98 "HgN/A
11:50 am73 °FPassing clouds.7 mph47%29.98 "HgN/A
11:20 am73 °FPassing clouds.8 mph44%29.98 "HgN/A
10:50 am72 °FScattered clouds.5 mph50%29.98 "HgN/A
10:20 am70 °FPassing clouds.3 mph53%29.98 "HgN/A
9:50 am68 °FSunny.3 mph60%29.98 "Hg10 mi
9:20 am66 °FSunny.2 mph56%29.98 "Hg10 mi
8:50 am64 °FSunny.3 mph64%29.98 "Hg10 mi
8:20 am61 °FSunny.6 mph77%29.95 "Hg10 mi
7:50 am61 °FSunny.5 mph77%29.95 "Hg10 mi
7:20 am57 °FSunny.1 mph88%29.95 "Hg10 mi
6:50 am55 °FSunny.1 mph88%29.95 "Hg10 mi
6:20 am54 °FSunny.1 mph88%29.95 "Hg10 mi
5:50 am54 °FSunny.2 mph88%29.95 "Hg10 mi
5:20 am55 °FClear.2 mph88%29.95 "Hg10 mi
4:50 am55 °FClear.2 mph82%29.95 "Hg10 mi
3:50 am55 °FClear.1 mph82%29.95 "Hg10 mi
3:20 am57 °FClear.3 mph77%29.95 "Hg10 mi
2:50 am55 °FClear.3 mph82%29.95 "Hg10 mi
1:50 am57 °FClear.2 mph77%29.95 "Hg10 mi
1:20 am55 °FClear.3 mph77%29.95 "Hg10 mi
12:50 am59 °FClear.1 mph72%29.95 "Hg10 mi
12:20 am59 °FClear.2 mph72%29.95 "Hg10 mi
11:50 pm
Wed, Jul 17
59 °FClear.1 mph72%29.95 "Hg10 mi
11:20 pm63 °FClear.2 mph64%29.95 "Hg10 mi
10:50 pm61 °FClear.1 mph68%29.92 "Hg10 mi
10:20 pm64 °FClear.1 mph52%29.92 "Hg10 mi
9:50 pm63 °FClear.3 mph64%29.92 "Hg10 mi
9:20 pm68 °FClear.1 mph49%29.92 "Hg10 mi
8:50 pm72 °FSunny.3 mph47%29.92 "Hg10 mi
8:20 pm73 °FSunny.6 mph41%29.92 "Hg10 mi
7:50 pm77 °FScattered clouds.5 mph36%29.92 "HgN/A
7:20 pm79 °FPassing clouds.7 mph34%29.92 "HgN/A
6:50 pm79 °FPassing clouds.8 mph34%29.92 "HgN/A
6:20 pm79 °FPassing clouds.9 mph34%29.92 "HgN/A
5:50 pm81 °FPassing clouds.9 mph30%29.92 "HgN/A
5:20 pm81 °FPassing clouds.10 mph37%29.92 "HgN/A
4:50 pm79 °FScattered clouds.13 mph34%29.92 "HgN/A
4:20 pm81 °FScattered clouds.9 mph37%29.92 "HgN/A
3:50 pm81 °FScattered clouds.8 mph34%29.95 "HgN/A
3:20 pm79 °FPassing clouds.9 mph39%29.95 "HgN/A
Weather by CustomWeather, © 2019

See weather overview